TimeCST,TemperatureF,Dew PointF,Humidity,Sea Level PressureIn,VisibilityMPH,Wind Direction,Wind SpeedMPH,Gust SpeedMPH,PrecipitationIn,Events,Conditions,WindDirDegrees,DateUTC
12:15 AM,19.4,14.0,80,30.26,10.0,West,10.4,-,N/A,,Clear,260,2013-01-04 06:15:00
12:35 AM,19.4,15.8,86,30.26,10.0,WSW,11.5,-,N/A,,Clear,250,2013-01-04 06:35:00
12:55 AM,19.4,14.0,80,30.26,10.0,West,11.5,-,N/A,,Clear,260,2013-01-04 06:55:00
1:15 AM,17.6,15.8,93,30.26,10.0,West,12.7,-,N/A,,Clear,260,2013-01-04 07:15:00
1:35 AM,17.6,12.2,79,30.27,10.0,West,10.4,-,N/A,,Clear,260,2013-01-04 07:35:00
1:55 AM,17.6,12.2,79,30.27,10.0,West,9.2,-,N/A,,Clear,260,2013-01-04 07:55:00
2:35 AM,17.6,12.2,79,30.27,10.0,West,10.4,-,N/A,,Clear,260,2013-01-04 08:35:00
3:15 AM,15.8,12.2,86,30.27,10.0,West,11.5,-,N/A,,Clear,260,2013-01-04 09:15:00
3:35 AM,15.8,12.2,86,30.26,10.0,West,10.4,-,N/A,,Clear,260,2013-01-04 09:35:00
3:55 AM,15.8,12.2,86,30.26,10.0,West,10.4,-,N/A,,Clear,260,2013-01-04 09:55:00
4:15 AM,15.8,12.2,86,30.26,10.0,WSW,11.5,-,N/A,,Clear,250,2013-01-04 10:15:00
4:55 AM,15.8,12.2,86,30.26,10.0,WSW,12.7,-,N/A,,Clear,250,2013-01-04 10:55:00
5:15 AM,15.8,12.2,86,30.26,10.0,WSW,12.7,-,N/A,,Clear,250,2013-01-04 11:15:00
5:35 AM,15.8,12.2,86,30.26,10.0,West,13.8,-,N/A,,Clear,260,2013-01-04 11:35:00
5:55 AM,15.8,12.2,86,30.26,10.0,West,11.5,-,N/A,,Clear,260,2013-01-04 11:55:00
6:15 AM,15.8,10.4,79,30.26,10.0,West,11.5,-,N/A,,Clear,260,2013-01-04 12:15:00
6:35 AM,14.0,10.4,86,30.26,10.0,West,11.5,-,N/A,,Clear,260,2013-01-04 12:35:00
7:15 AM,14.0,10.4,86,30.27,9.0,West,10.4,-,N/A,,Clear,270,2013-01-04 13:15:00
7:35 AM,14.0,10.4,86,30.28,9.0,West,11.5,-,N/A,,Clear,260,2013-01-04 13:35:00
7:55 AM,15.8,12.2,86,30.28,10.0,West,10.4,-,N/A,,Clear,270,2013-01-04 13:55:00
8:15 AM,15.8,10.4,79,30.28,10.0,West,12.7,-,N/A,,Clear,260,2013-01-04 14:15:00
8:35 AM,15.8,10.4,79,30.28,10.0,West,11.5,-,N/A,,Clear,260,2013-01-04 14:35:00
8:55 AM,17.6,12.2,79,30.28,10.0,WSW,13.8,-,N/A,,Clear,240,2013-01-04 14:55:00
9:15 AM,19.4,12.2,74,30.28,10.0,WSW,19.6,-,N/A,,Clear,250,2013-01-04 15:15:00
9:35 AM,19.4,12.2,74,30.28,10.0,WSW,13.8,20.7,N/A,,Clear,250,2013-01-04 15:35:00
9:55 AM,19.4,12.2,74,30.29,10.0,West,13.8,-,N/A,,Clear,270,2013-01-04 15:55:00
10:15 AM,19.4,12.2,74,30.29,10.0,West,15.0,-,N/A,,Clear,270,2013-01-04 16:15:00
10:35 AM,19.4,12.2,74,30.30,10.0,West,17.3,24.2,N/A,,Clear,270,2013-01-04 16:35:00
10:55 AM,21.2,14.0,74,30.29,10.0,West,16.1,21.9,N/A,,Clear,270,2013-01-04 16:55:00
11:15 AM,21.2,15.8,80,30.28,10.0,West,15.0,-,N/A,,Clear,260,2013-01-04 17:15:00
11:35 AM,23.0,15.8,74,30.27,10.0,WSW,18.4,-,N/A,,Clear,250,2013-01-04 17:35:00
11:55 AM,24.8,15.8,69,30.27,10.0,West,17.3,-,N/A,,Clear,260,2013-01-04 17:55:00
12:15 PM,24.8,17.6,74,30.26,10.0,SW,15.0,-,N/A,,Clear,230,2013-01-04 18:15:00
12:35 PM,24.8,17.6,74,30.25,10.0,WSW,19.6,-,N/A,,Clear,240,2013-01-04 18:35:00
12:55 PM,24.8,17.6,74,30.25,10.0,WSW,19.6,-,N/A,,Clear,250,2013-01-04 18:55:00
1:15 PM,24.8,17.6,74,30.24,10.0,WSW,19.6,-,N/A,,Clear,240,2013-01-04 19:15:00
1:35 PM,26.6,17.6,69,30.24,10.0,WSW,18.4,-,N/A,,Clear,250,2013-01-04 19:35:00
1:55 PM,26.6,19.4,74,30.24,10.0,WSW,20.7,-,N/A,,Clear,240,2013-01-04 19:55:00
2:15 PM,26.6,19.4,74,30.24,10.0,WSW,24.2,-,N/A,,Clear,240,2013-01-04 20:15:00
2:35 PM,26.6,19.4,74,30.24,10.0,WSW,24.2,-,N/A,,Clear,240,2013-01-04 20:35:00
2:55 PM,26.6,19.4,74,30.24,10.0,WSW,21.9,-,N/A,,Clear,250,2013-01-04 20:55:00
3:15 PM,26.6,21.2,80,30.24,10.0,WSW,24.2,28.8,N/A,,Clear,240,2013-01-04 21:15:00
3:35 PM,26.6,19.4,74,30.24,10.0,WSW,20.7,26.5,N/A,,Clear,240,2013-01-04 21:35:00
3:55 PM,26.6,19.4,74,30.24,10.0,WSW,19.6,29.9,N/A,,Clear,240,2013-01-04 21:55:00
4:15 PM,26.6,21.2,80,30.24,10.0,WSW,19.6,-,N/A,,Clear,240,2013-01-04 22:15:00
4:35 PM,26.6,21.2,80,30.24,10.0,WSW,19.6,24.2,N/A,,Clear,240,2013-01-04 22:35:00
4:55 PM,26.6,19.4,74,30.24,10.0,WSW,18.4,24.2,N/A,,Clear,240,2013-01-04 22:55:00
5:15 PM,26.6,19.4,74,30.24,10.0,WSW,19.6,-,N/A,,Clear,240,2013-01-04 23:15:00
5:35 PM,26.6,19.4,74,30.25,10.0,WSW,19.6,-,N/A,,Clear,240,2013-01-04 23:35:00
5:55 PM,26.6,19.4,74,30.25,10.0,WSW,16.1,-,N/A,,Clear,240,2013-01-04 23:55:00
6:15 PM,26.6,19.4,74,30.25,10.0,WSW,16.1,-,N/A,,Clear,240,2013-01-05 00:15:00
6:35 PM,26.6,19.4,74,30.26,10.0,WSW,16.1,-,N/A,,Clear,240,2013-01-05 00:35:00
6:55 PM,24.8,19.4,80,30.26,10.0,WSW,13.8,-,N/A,,Clear,240,2013-01-05 00:55:00
7:15 PM,24.8,19.4,80,30.27,10.0,WSW,13.8,-,N/A,,Clear,240,2013-01-05 01:15:00
7:35 PM,24.8,19.4,80,30.27,10.0,WSW,11.5,-,N/A,,Clear,240,2013-01-05 01:35:00
7:55 PM,24.8,17.6,74,30.27,10.0,WSW,12.7,-,N/A,,Clear,240,2013-01-05 01:55:00
8:15 PM,23.0,17.6,80,30.27,10.0,WSW,11.5,-,N/A,,Clear,240,2013-01-05 02:15:00
8:35 PM,23.0,17.6,80,30.27,10.0,WSW,12.7,-,N/A,,Clear,240,2013-01-05 02:35:00
8:55 PM,23.0,17.6,80,30.27,10.0,WSW,11.5,-,N/A,,Clear,240,2013-01-05 02:55:00
9:15 PM,23.0,17.6,80,30.27,10.0,WSW,11.5,-,N/A,,Clear,240,2013-01-05 03:15:00
9:35 PM,23.0,19.4,86,30.27,10.0,WSW,12.7,-,N/A,,Clear,240,2013-01-05 03:35:00
9:55 PM,23.0,19.4,86,30.27,10.0,WSW,12.7,-,N/A,,Clear,240,2013-01-05 03:55:00
10:15 PM,21.2,19.4,93,30.28,10.0,WSW,10.4,-,N/A,,Clear,240,2013-01-05 04:15:00
10:35 PM,21.2,17.6,86,30.28,10.0,WSW,9.2,-,N/A,,Clear,240,2013-01-05 04:35:00
10:55 PM,21.2,17.6,86,30.28,10.0,SW,10.4,-,N/A,,Clear,230,2013-01-05 04:55:00
11:15 PM,21.2,17.6,86,30.28,10.0,SW,9.2,-,N/A,,Clear,230,2013-01-05 05:15:00
11:35 PM,21.2,15.8,80,30.28,10.0,SW,6.9,-,N/A,,Clear,230,2013-01-05 05:35:00
11:55 PM,21.2,17.6,86,30.28,10.0,SW,8.1,-,N/A,,Clear,230,2013-01-05 05:55:00